Regional Weather Roundup
Issued by NWS Wakefield, VA

Home | Current Version | Previous Version | Text Only | Print | Product List | Glossary On
Versions: 1 2 3 4 5 6 7 8 9 10 11 12 13 14 15 16 17 18 19 20 21 22 23 24 25 26 27 28 29 30 31 32 33 34 35 36 37 38 39 40 41 42 43 44 45 46 47 48 49 50
000
ASUS41 KAKQ 231210
RWRAKQ

REGIONAL WEATHER ROUNDUP
NATIONAL WEATHER SERVICE WAKEFIELD VA
700 AM EST SUN NOV 23 2014

Note: "fair" indicates few or no clouds below 12,000 feet with no
significant weather and/or obstructions to visibility. * = Denotes
station may not report precipitation (e.g., rain,snow,etc.),
thunder or fog.

VAZ042-051-052>054-056-231300-
NORTHERN VIRGINIA

CITY           SKY/WX    TMP DP  RH WIND       PRES   REMARKS
WASH NATIONAL  MOCLDY    41  21  44 S5        30.25R
DULLES         MOCLDY    35  19  52 S3        30.22R
FORT BELVOIR   PTCLDY    35  23  61 SE2       30.24R
QUANTICO       PTCLDY    39  24  55 SW3       30.25R
FREDERICKSBRG* MOCLDY    37  19  48 CALM      30.23S
STAFFORD*      PTCLDY    29  20  69 CALM      30.27S
WARRENTON      PTCLDY    31  26  84 CALM      30.21R
CULPEPER*      PTCLDY    28  23  80 CALM      30.22R
MANASSAS*      PTCLDY    28  25  86 CALM      30.23R
LEESBURG*      MOCLDY    32  27  80 CALM      30.23R
WINCHESTER     PTCLDY    43  14  31 SW10G17   30.18R
FRONT ROYAL*   PTSUNNY   43  21  42 SW9       30.18R
LURAY*         PTSUNNY   45  25  45 SW6       30.21R
$$

VAZ048-049-060>072-079>083-231300-
CENTRAL AND SOUTH CENTRAL VIRGINIA

CITY           SKY/WX    TMP DP  RH WIND       PRES   REMARKS
RICHMOND       MOCLDY    39  20  46 CALM      30.27R
CHESTERFIELD*  CLOUDY    39  18  41 SW3       30.27F
PETERSBURG*    CLOUDY    32  30  92 CALM      30.28S
HANOVER        MOCLDY    41  20  43 S6        30.27S
TAPPAHANNOCK*  MOCLDY    40  17  38 S5        30.26F
QUINTON*       FAIR      32  25  76 S6        30.27S
CHARLOTTSVILLE MOCLDY    37  20  50 S3        30.19F
GORDONSVILLE*  PTSUNNY   32  22  67 CALM      30.21S
ORANGE*        MOCLDY    36  23  60 S6        30.23S
LOUISA*        MOCLDY    39  19  45 S3        30.20S
BUMPASS*       FAIR      40  20  44 SW5       30.23S
FARMVILLE*     CLOUDY    36  22  58 S3        30.23F
CREWE*         CLOUDY    31  26  80 CALM      30.25F
FORT PICKETT*  CLOUDY    33  26  77 SW5       30.27S
LUNENBURG*     CLOUDY    34  28  77 CALM      30.26F
CHASE CITY*    FAIR      36  30  79 CALM      30.26F
CLARKSVILLE*   CLOUDY    34  32  93 CALM      30.25F
SOUTH HILL*    CLOUDY    35  31  85 CALM      30.33F
LAWRENCEVILLE* CLOUDY    35  31  85 CALM      30.27F
$$

VAZ088>098-231300-
SOUTHEAST VIRGINIA

CITY           SKY/WX    TMP DP  RH WIND       PRES   REMARKS
NORFOLK        CLOUDY    39  32  76 S3        30.30S
VIRGINIA BEACH CLOUDY    40  33  76 CALM      30.30S
NORFOLK NAVAL  CLOUDY    43  33  68 CALM      30.32R
WEST POINT*    MOCLDY    41  27  57 CALM      30.29F
SALUDA*        FAIR      40  27  60 SW6       30.27S
NEWPORT NEWS   CLOUDY    37  30  75 CALM      30.30R
LANGLEY AFB    CLOUDY    39  33  78 S5        30.30S
FORT EUSTIS    CLOUDY    36  32  84 E1        30.28S
WILLIAMSBURG*  CLOUDY    37  34  87 S6        30.30S
HR EXEC AP*    CLOUDY    34  30  86 CALM      30.32R
FRANKLIN*      CLOUDY    34  30  86 CALM      30.29S
WAKEFIELD      CLOUDY    34  29  82 CALM      30.29S
$$

VAZ020-022-025-037-045-231300-
WEST CENTRAL AND SOUTHWEST VIRGINIA

CITY           SKY/WX    TMP DP  RH WIND       PRES   REMARKS
STAUNTON*      MOCLDY    38  20  47 CALM      30.22S
WAYNESBORO*    PTSUNNY   34  21  59 CALM      30.19F
HOT SPRINGS VA MOCLDY    48  36  63 SW7       30.16S
LYNCHBURG      MOCLDY    33  21  61 SW5       30.24F
DANVILLE       CLOUDY    34  27  75 CALM      30.26F
SOUTH BOSTON*  CLOUDY    31  28  86 CALM      30.26F
MARTINSVILLE   CLOUDY    32  28  84 CALM      30.26F
ROANOKE        MOCLDY    32  23  69 CALM      30.25F
BLACKSBURG     MOCLDY    30  27  86 CALM      30.23S
DUBLIN*        MOCLDY    30  24  80 CALM      30.22F
MARION*        FAIR      32  21  63 E5        30.21F
HILLSVILLE*    MOCLDY    44  36  73 S7        30.19F
RICHLANDS*     PTSUNNY   48  35  60 SE5       30.12F
WISE*          MOCLDY    48  34  57 SE7       30.11F
ABINGDON*      MOCLDY    42  28  57 E7        30.14F
$$

MDZ021>025-VAZ099-100-231300-
SOUTHERN MARYLAND AND THE DELMARVA PENINSULA

CITY           SKY/WX    TMP DP  RH WIND       PRES   REMARKS
PATUXENT RIVER MOCLDY    44  19  36 SW8       30.25R
BAY BRIDGE APT   N/A     45  23  42 S6        30.25R
LEONARDTOWN    MOCLDY    43  21  42 SW7       30.26R
DOVER          CLOUDY    35  24  63 SE3       30.22R
GEORGETOWN     PTCLDY    40  28  62 SW6       30.27R
EASTON         NOT AVBL
CAMBRIDGE      MOCLDY    43  27  52 S3        30.26R
SALISBURY      PTCLDY    40  32  73 S5        30.27R
OCEAN CITY     PTCLDY    44  27  51 SW7       30.27R
WALLOPS ISLAND MOCLDY    39  31  72 SW7       30.29R
ACCOMACK*      MOCLDY    41  32  70 SW7       30.28S
$$

NCZ012>017-030>032-231300-
NORTH CENTRAL AND EASTERN NORTH CAROLINA

CITY           SKY/WX    TMP DP  RH WIND       PRES   REMARKS
ROANOKE RAPIDS CLOUDY    34  32  93 CALM      30.29S
RALEIGH        CLOUDY    40  31  70 CALM      30.26F
ELIZABETH CITY CLOUDY    43  37  79 CALM      30.30S
AHOSKIE*       CLOUDY    34  31  90 CALM      30.30S
EDENTON*       CLOUDY    39  37  90 CALM      30.29F
CURRITUCK*     CLOUDY    39  36  89 CALM      30.31S
KILL DEVIL HLS CLOUDY    56  47  70 CALM      30.30R
MANTEO         CLOUDY    53  47  80 CALM      30.31R
CAPE HATTERAS  CLOUDY    51  51 100 CALM      30.31R
TARBORO*       CLOUDY    36  33  87 CALM      30.29F
GOLDSBORO      CLOUDY    44  40  89 CALM      30.26R
WASHINGTON     CLOUDY    40  37  89 CALM      30.28F
GREENVILLE     CLOUDY    39  36  87 CALM      30.28F
NEW BERN       CLOUDY    47  43  86 CALM      30.27F
WILMINGTON     LGT RAIN  51  50  96 CALM      30.25F
$$

VAZ048-231300-
ELSEWHERE

CITY           SKY/WX    TMP DP  RH WIND       PRES   REMARKS
HARRISBURG PA  PTCLDY    31  23  72 E3        30.20R
BALTIMORE      MOCLDY    35  20  54 CALM      30.23R
ANNAPOLIS      PTCLDY    40  19  43 S5        30.24R
ANDREWS AFB    PTCLDY    38  19  46 SW7       30.23R
PHILADELPHIA   MOCLDY    41  24  51 S8        30.24R
WILDWOOD NJ*   PTCLDY    43  25  49 SW6       30.26R
HENDERSON NC   CLOUDY    38  31  76 CALM      30.27S
GREENSBORO     CLOUDY    42  28  57 CALM      30.23F
ROCKY MOUNT    CLOUDY    39  29  67 CALM      30.28F
$$

VAZ100-231300-
MARINE

STATION/POSITION TIME  TEMP    WIND        PRES    WAVE   SWELL
                       AIR SEA DIR/SP/G            HT/PER HT/PER
                 (UTC) (F)     (DEG/KT/KT) (MB)    (FT/S) (FT/S)
CAPE MAY NJ      1200   44 46  230/  8/ 10 1024.6R
LEWES DE         1200   41 46  230/  3/  6 1024.5R
15NM E FENWICK I 1200   52 54              1024.2R   4/ 5
OCEAN-CITY-INLET 1200   43 45  230/ 10/ 12 1024.3R
WACHAPREAGUE VA  1200   40 41  230/  4/  6 1025.5S
THOMAS POINT MD  1200   45 47  210/ 12/ 13 1025.3R
GOOSES REEF MD   1200   46     220/ 12/ 14 1024.4R
COVE POINT MD    1200   45     210/  5/  7 1024.4R
SOLOMONS ISLAND  1200      47                N/A
BISHOPS HEAD MD  1200   44 37  210/  9/ 10   N/A
PINEY POINT MD   1200          230/  6/  7   N/A
POTOMAC MD       1200   45     230/ 10/ 14 1023.9R
CAMBRIDGE MD     1200   42 42  200/  2/  4 1024.3R
LEWISETTA VA     1200   44 42  230/  4/  6 1024.2F
RAPPAHANNOCK LGT 1200          190/ 10/ 12 1025.7F
STINGRAY PT      1200   45     220/ 12/ 12 1025.4F
YORK RVR RNG VA  1200   44     220/  8/  9 1025.0F
YORKTOWN VA      1200   43 50  210/  8/ 10 1025.2F
JAMESTOWN VA     1200   39      90/  2/  4   N/A
DOMINION TERM VA 1200   43     210/  3/  4 1025.8S
KIPTOPEKE VA     1200      51  230/  6/  7   N/A
CHES BAY BRIDGE  1200   45 51  200/  4/  5 1025.4S
CAPE HENRY VA    1200   46     230/  6/  8 1024.6S
CHESAPEAKE LGHT  1100   51     240/  6/  6 1026.8R
WILLOUBY STN VA  1200   45     220/  4/  5 1024.5R
S CRANEY ISL VA  1200          170/  3/  5 1025.8R
CAPE HENRY BUOY  1200      55                N/A     1/ 8
1ST LANDING BUOY 1200   47     220/  6/  6 1025.4R
CAPE CHARLES BUO 1200      53                N/A     1/ 8   2/ 8
64NM E OF VA BCH 1200   63 61  200/ 14/ 16 1025.5F   2/ 8   2/ 8
DUCK PIER NC     1200   54 54  190/  6/  6 1025.3R
44100 DUCK FRF   1200      58                N/A     1/ 9
44056 DUCK FRF   1200      56                N/A     1/ 9
OREGON INLET NC  1200   54 51  140/  4/  5 1026.2R
HATTERAS NC      1200   59 51   CALM  /  1 1026.5R
DIAMOND SHLS NC  1200   66     210/  8/ 12 1026.2F   2/ 8   2/ 8


USA.gov is the U.S. government's official web portal to all federal, state and local government web resources and services.